Time,TemperatureF,DewpointF,PressureIn,WindDirection,WindDirectionDegrees,WindSpeedMPH,WindSpeedGustMPH,Humidity,HourlyPrecipIn,Conditions,Clouds,dailyrainin,SoftwareType,DateUTC
2013-02-02 00:00:00,12.2,7.5,30.20,SSW,209,3.0,6.0,81,0.00,,---,0.00,VWS V14.00,2013-02-02 05:00:00,
2013-02-02 00:01:00,12.2,7.2,30.20,SSW,213,5.0,6.0,80,0.00,,---,0.00,VWS V14.00,2013-02-02 05:01:00,
2013-02-02 00:06:00,12.3,7.3,30.20,WSW,238,4.0,7.0,80,0.00,,---,0.00,VWS V14.00,2013-02-02 05:06:00,
2013-02-02 00:11:00,12.2,6.9,30.20,SW,225,3.0,8.0,79,0.00,,---,0.00,VWS V14.00,2013-02-02 05:11:00,
2013-02-02 00:16:00,12.2,6.9,30.20,SW,228,4.0,6.0,79,0.00,,---,0.00,VWS V14.00,2013-02-02 05:16:00,
2013-02-02 00:21:00,12.2,6.7,30.19,SSW,203,4.0,9.0,78,0.00,,---,0.00,VWS V14.00,2013-02-02 05:21:00,
2013-02-02 00:26:00,12.1,6.6,30.19,SSW,200,3.0,9.0,78,0.00,,---,0.00,VWS V14.00,2013-02-02 05:26:00,
2013-02-02 00:31:00,12.1,6.6,30.19,SSW,210,3.0,4.0,78,0.00,,---,0.00,VWS V14.00,2013-02-02 05:31:00,
2013-02-02 00:36:00,12.0,6.5,30.19,SW,221,3.0,7.0,78,0.00,,---,0.00,VWS V14.00,2013-02-02 05:36:00,
2013-02-02 00:41:00,12.0,6.5,30.19,SW,232,3.0,8.0,78,0.00,,---,0.00,VWS V14.00,2013-02-02 05:41:00,
2013-02-02 00:46:00,12.0,6.5,30.19,SW,221,5.0,5.0,78,0.00,,---,0.00,VWS V14.00,2013-02-02 05:46:00,
2013-02-02 00:51:00,11.9,6.4,30.19,SW,214,1.0,10.0,78,0.00,,---,0.00,VWS V14.00,2013-02-02 05:51:00,
2013-02-02 00:56:00,11.9,6.4,30.20,SW,217,7.0,12.0,78,0.00,,---,0.00,VWS V14.00,2013-02-02 05:56:00,
2013-02-02 01:01:00,11.9,6.4,30.20,SW,230,7.0,9.0,78,0.00,,---,0.00,VWS V14.00,2013-02-02 06:01:00,
2013-02-02 01:06:00,11.9,6.4,30.19,WSW,248,8.0,11.0,78,0.00,,---,0.00,VWS V14.00,2013-02-02 06:06:00,
2013-02-02 01:11:00,11.9,6.7,30.19,WSW,240,3.0,12.0,79,0.00,,---,0.00,VWS V14.00,2013-02-02 06:11:00,
2013-02-02 01:16:00,11.8,6.6,30.19,WSW,240,4.0,9.0,79,0.00,,---,0.00,VWS V14.00,2013-02-02 06:16:00,
2013-02-02 01:21:00,11.7,5.9,30.19,West,259,10.0,15.0,77,0.00,,---,0.00,VWS V14.00,2013-02-02 06:21:00,
2013-02-02 01:26:00,11.7,5.6,30.19,WSW,240,3.0,15.0,76,0.00,,---,0.00,VWS V14.00,2013-02-02 06:26:00,
2013-02-02 01:31:00,11.7,5.3,30.19,WSW,251,7.0,9.0,75,0.00,,---,0.00,VWS V14.00,2013-02-02 06:31:00,
2013-02-02 01:36:00,11.6,5.2,30.18,WSW,252,3.0,11.0,75,0.00,,---,0.00,VWS V14.00,2013-02-02 06:36:00,
2013-02-02 01:41:00,11.6,5.5,30.19,WSW,254,12.0,12.0,76,0.00,,---,0.00,VWS V14.00,2013-02-02 06:41:00,
2013-02-02 01:46:00,11.6,5.5,30.19,West,263,3.0,6.0,76,0.00,,---,0.00,VWS V14.00,2013-02-02 06:46:00,
2013-02-02 01:51:00,11.5,5.7,30.19,WSW,240,1.0,6.0,77,0.00,,---,0.00,VWS V14.00,2013-02-02 06:51:00,
2013-02-02 01:56:00,11.5,6.0,30.18,SW,228,4.0,8.0,78,0.00,,---,0.00,VWS V14.00,2013-02-02 06:56:00,
2013-02-02 02:01:00,11.5,6.3,30.19,SW,225,3.0,6.0,79,0.00,,---,0.00,VWS V14.00,2013-02-02 07:01:00,
2013-02-02 02:06:00,11.4,6.2,30.19,WSW,253,8.0,11.0,79,0.00,,---,0.00,VWS V14.00,2013-02-02 07:06:00,
2013-02-02 02:11:00,11.4,6.2,30.18,WSW,248,6.0,12.0,79,0.00,,---,0.00,VWS V14.00,2013-02-02 07:11:00,
2013-02-02 02:16:00,11.3,6.1,30.18,SW,223,5.0,7.0,79,0.00,,---,0.00,VWS V14.00,2013-02-02 07:16:00,
2013-02-02 02:21:00,11.3,5.8,30.18,WSW,239,2.0,7.0,78,0.00,,---,0.00,VWS V14.00,2013-02-02 07:21:00,
2013-02-02 02:26:00,11.3,5.8,30.18,WSW,238,5.0,9.0,78,0.00,,---,0.00,VWS V14.00,2013-02-02 07:26:00,
2013-02-02 02:31:00,11.3,5.8,30.18,WSW,245,3.0,5.0,78,0.00,,---,0.00,VWS V14.00,2013-02-02 07:31:00,
2013-02-02 02:36:00,11.3,5.5,30.18,WSW,251,6.0,8.0,77,0.00,,---,0.00,VWS V14.00,2013-02-02 07:36:00,
2013-02-02 02:41:00,11.3,5.2,30.18,WSW,241,2.0,9.0,76,0.00,,---,0.00,VWS V14.00,2013-02-02 07:41:00,
2013-02-02 02:46:00,11.4,5.3,30.18,SW,221,4.0,13.0,76,0.00,,---,0.00,VWS V14.00,2013-02-02 07:46:00,
2013-02-02 02:51:00,11.5,5.1,30.18,SW,233,8.0,13.0,75,0.00,,---,0.00,VWS V14.00,2013-02-02 07:51:00,
2013-02-02 02:56:00,11.5,5.1,30.18,WSW,242,6.0,13.0,75,0.00,,---,0.00,VWS V14.00,2013-02-02 07:56:00,
2013-02-02 03:01:00,11.5,5.1,30.18,WSW,238,3.0,5.0,75,0.00,,---,0.00,VWS V14.00,2013-02-02 08:01:00,
2013-02-02 03:06:00,11.5,5.1,30.17,SSW,213,2.0,12.0,75,0.00,,---,0.00,VWS V14.00,2013-02-02 08:06:00,
2013-02-02 03:11:00,11.4,5.3,30.17,SSW,200,2.0,12.0,76,0.00,,---,0.00,VWS V14.00,2013-02-02 08:11:00,
2013-02-02 03:16:00,11.4,5.3,30.17,SSW,198,4.0,5.0,76,0.00,,---,0.00,VWS V14.00,2013-02-02 08:16:00,
2013-02-02 03:21:00,11.4,5.0,30.17,WSW,251,6.0,9.0,75,0.00,,---,0.00,VWS V14.00,2013-02-02 08:21:00,
2013-02-02 03:26:00,11.3,5.2,30.17,SW,217,4.0,9.0,76,0.00,,---,0.00,VWS V14.00,2013-02-02 08:26:00,
2013-02-02 03:31:00,11.3,5.5,30.17,SSW,209,3.0,3.0,77,0.00,,---,0.00,VWS V14.00,2013-02-02 08:31:00,
2013-02-02 03:36:00,11.3,5.5,30.17,SW,221,1.0,8.0,77,0.00,,---,0.00,VWS V14.00,2013-02-02 08:36:00,
2013-02-02 03:41:00,11.2,5.7,30.17,WSW,238,4.0,8.0,78,0.00,,---,0.00,VWS V14.00,2013-02-02 08:41:00,
2013-02-02 03:46:00,11.2,5.7,30.17,West,269,6.0,6.0,78,0.00,,---,0.00,VWS V14.00,2013-02-02 08:46:00,
2013-02-02 03:51:00,11.2,5.7,30.16,WSW,250,8.0,9.0,78,0.00,,---,0.00,VWS V14.00,2013-02-02 08:51:00,
2013-02-02 03:56:00,11.3,5.8,30.17,SSW,207,4.0,10.0,78,0.00,,---,0.00,VWS V14.00,2013-02-02 08:56:00,
2013-02-02 04:01:00,11.2,5.7,30.17,West,261,4.0,9.0,78,0.00,,---,0.00,VWS V14.00,2013-02-02 09:01:00,
2013-02-02 04:06:00,11.2,5.7,30.16,WSW,250,7.0,13.0,78,0.00,,---,0.00,VWS V14.00,2013-02-02 09:06:00,
2013-02-02 04:11:00,11.2,5.7,30.16,SSW,205,2.0,13.0,78,0.00,,---,0.00,VWS V14.00,2013-02-02 09:11:00,
2013-02-02 04:16:00,11.2,5.4,30.15,SSW,211,4.0,9.0,77,0.00,,---,0.00,VWS V14.00,2013-02-02 09:16:00,
2013-02-02 04:21:00,11.2,5.1,30.15,SSW,210,1.0,9.0,76,0.00,,---,0.00,VWS V14.00,2013-02-02 09:21:00,
2013-02-02 04:26:00,11.1,5.0,30.15,SSW,200,5.0,9.0,76,0.00,,---,0.00,VWS V14.00,2013-02-02 09:26:00,
2013-02-02 04:31:00,11.0,4.6,30.15,SSW,194,4.0,7.0,75,0.00,,---,0.00,VWS V14.00,2013-02-02 09:31:00,
2013-02-02 04:36:00,11.0,4.3,30.14,SSW,213,2.0,9.0,74,0.00,,---,0.00,VWS V14.00,2013-02-02 09:36:00,
2013-02-02 04:41:00,10.9,4.2,30.16,WSW,248,5.0,9.0,74,0.00,,---,0.00,VWS V14.00,2013-02-02 09:41:00,
2013-02-02 04:46:00,10.9,4.2,30.15,SW,228,2.0,7.0,74,0.00,,---,0.00,VWS V14.00,2013-02-02 09:46:00,
2013-02-02 04:51:00,10.9,4.2,30.15,SW,225,4.0,7.0,74,0.00,,---,0.00,VWS V14.00,2013-02-02 09:51:00,
2013-02-02 04:56:00,10.9,4.2,30.15,SSW,200,1.0,8.0,74,0.00,,---,0.00,VWS V14.00,2013-02-02 09:56:00,
2013-02-02 05:01:00,10.9,4.2,30.15,SW,215,4.0,5.0,74,0.00,,---,0.00,VWS V14.00,2013-02-02 10:01:00,
2013-02-02 05:06:00,10.9,4.2,30.14,West,263,12.0,14.0,74,0.00,,---,0.00,VWS V14.00,2013-02-02 10:06:00,
2013-02-02 05:11:00,10.8,4.2,30.14,SSW,210,4.0,14.0,74,0.00,,---,0.00,VWS V14.00,2013-02-02 10:11:00,
2013-02-02 05:16:00,10.8,4.2,30.14,SW,228,5.0,8.0,74,0.00,,---,0.00,VWS V14.00,2013-02-02 10:16:00,
2013-02-02 05:21:00,10.7,4.1,30.14,SW,228,8.0,10.0,74,0.00,,---,0.00,VWS V14.00,2013-02-02 10:21:00,
2013-02-02 05:26:00,10.6,4.0,30.14,WSW,246,2.0,10.0,74,0.00,,---,0.00,VWS V14.00,2013-02-02 10:26:00,
2013-02-02 05:31:00,10.7,4.1,30.14,WSW,251,3.0,11.0,74,0.00,,---,0.00,VWS V14.00,2013-02-02 10:31:00,
2013-02-02 05:36:00,10.5,3.9,30.14,SW,232,0.0,11.0,74,0.00,,---,0.00,VWS V14.00,2013-02-02 10:36:00,
2013-02-02 05:41:00,10.4,4.1,30.13,SW,228,2.0,11.0,75,0.00,,---,0.00,VWS V14.00,2013-02-02 10:41:00,
2013-02-02 05:46:00,10.3,4.0,30.13,South,184,1.0,7.0,75,0.00,,---,0.00,VWS V14.00,2013-02-02 10:46:00,
2013-02-02 05:51:00,10.2,3.9,30.13,SSW,193,0.0,7.0,75,0.00,,---,0.00,VWS V14.00,2013-02-02 10:51:00,
2013-02-02 05:56:00,10.2,3.9,30.13,South,188,1.0,7.0,75,0.00,,---,0.00,VWS V14.00,2013-02-02 10:56:00,
2013-02-02 06:01:00,10.1,4.1,30.13,SSW,192,1.0,3.0,76,0.00,,---,0.00,VWS V14.00,2013-02-02 11:01:00,
2013-02-02 06:06:00,10.0,4.0,30.12,South,191,1.0,3.0,76,0.00,,---,0.00,VWS V14.00,2013-02-02 11:06:00,
2013-02-02 06:11:00,9.9,3.9,30.12,South,186,2.0,4.0,76,0.00,,---,0.00,VWS V14.00,2013-02-02 11:11:00,
2013-02-02 06:16:00,10.0,4.2,30.12,South,188,2.0,3.0,77,0.00,,---,0.00,VWS V14.00,2013-02-02 11:16:00,
2013-02-02 06:21:00,10.0,4.2,30.12,SSW,198,2.0,4.0,77,0.00,,---,0.00,VWS V14.00,2013-02-02 11:21:00,
2013-02-02 06:26:00,10.1,4.6,30.12,SSW,192,3.0,6.0,78,0.00,,---,0.00,VWS V14.00,2013-02-02 11:26:00,
2013-02-02 06:31:00,10.2,4.7,30.11,South,190,2.0,4.0,78,0.00,,---,0.00,VWS V14.00,2013-02-02 11:31:00,
2013-02-02 06:36:00,10.2,4.7,30.11,SSW,204,2.0,5.0,78,0.00,,---,0.00,VWS V14.00,2013-02-02 11:36:00,
2013-02-02 06:41:00,10.3,4.8,30.11,SSW,211,2.0,6.0,78,0.00,,---,0.00,VWS V14.00,2013-02-02 11:41:00,
2013-02-02 06:46:00,10.4,4.9,30.11,SSW,198,3.0,5.0,78,0.00,,---,0.00,VWS V14.00,2013-02-02 11:46:00,
2013-02-02 06:51:00,10.5,5.0,30.11,SSW,201,4.0,7.0,78,0.00,,---,0.00,VWS V14.00,2013-02-02 11:51:00,
2013-02-02 06:56:00,10.6,5.1,30.11,SSW,207,2.0,7.0,78,0.00,,---,0.00,VWS V14.00,2013-02-02 11:56:00,
2013-02-02 07:01:00,10.6,5.1,30.11,SSW,197,3.0,7.0,78,0.00,,---,0.00,VWS V14.00,2013-02-02 12:01:00,
2013-02-02 07:06:00,10.6,5.4,30.11,SSW,196,2.0,9.0,79,0.00,,---,0.00,VWS V14.00,2013-02-02 12:06:00,
2013-02-02 07:11:00,10.5,5.3,30.11,South,187,5.0,9.0,79,0.00,,---,0.00,VWS V14.00,2013-02-02 12:11:00,
2013-02-02 07:16:00,10.5,5.6,30.11,SSW,200,1.0,6.0,80,0.00,,---,0.00,VWS V14.00,2013-02-02 12:16:00,
2013-02-02 07:21:00,10.5,5.8,30.11,SSW,193,6.0,7.0,81,0.00,,---,0.00,VWS V14.00,2013-02-02 12:21:00,
2013-02-02 07:26:00,10.5,5.8,30.10,SSW,196,3.0,7.0,81,0.00,,---,0.00,VWS V14.00,2013-02-02 12:26:00,
2013-02-02 07:31:00,10.5,6.1,30.10,SW,215,3.0,9.0,82,0.00,,---,0.00,VWS V14.00,2013-02-02 12:31:00,
2013-02-02 07:36:00,10.4,6.0,30.10,South,171,7.0,9.0,82,0.00,,---,0.00,VWS V14.00,2013-02-02 12:36:00,
2013-02-02 07:41:00,10.4,6.0,30.10,SSW,198,3.0,9.0,82,0.00,,---,0.00,VWS V14.00,2013-02-02 12:41:00,
2013-02-02 07:46:00,10.4,6.0,30.10,SSW,192,4.0,8.0,82,0.00,,---,0.00,VWS V14.00,2013-02-02 12:46:00,
2013-02-02 07:51:00,10.4,6.3,30.10,SSW,198,2.0,8.0,83,0.00,,---,0.00,VWS V14.00,2013-02-02 12:51:00,
2013-02-02 07:56:00,10.5,6.4,30.10,SSW,198,3.0,8.0,83,0.00,,---,0.00,VWS V14.00,2013-02-02 12:56:00,
2013-02-02 08:01:00,10.5,6.4,30.10,SSW,211,2.0,6.0,83,0.00,,---,0.00,VWS V14.00,2013-02-02 13:01:00,
2013-02-02 08:06:00,10.5,6.6,30.10,SSW,205,5.0,8.0,84,0.00,,---,0.00,VWS V14.00,2013-02-02 13:06:00,
2013-02-02 08:11:00,10.5,6.6,30.10,SSW,200,3.0,8.0,84,0.00,,---,0.00,VWS V14.00,2013-02-02 13:11:00,
2013-02-02 08:16:00,10.6,6.7,30.09,SSW,205,3.0,7.0,84,0.00,,---,0.00,VWS V14.00,2013-02-02 13:16:00,
2013-02-02 08:21:00,10.6,6.7,30.09,SSW,196,3.0,8.0,84,0.00,,---,0.00,VWS V14.00,2013-02-02 13:21:00,
2013-02-02 08:26:00,10.7,7.1,30.09,South,191,4.0,9.0,85,0.00,,---,0.00,VWS V14.00,2013-02-02 13:26:00,
2013-02-02 08:31:00,10.7,7.1,30.09,South,189,2.0,9.0,85,0.00,,---,0.00,VWS V14.00,2013-02-02 13:31:00,
2013-02-02 08:36:00,10.8,7.2,30.09,SSW,195,2.0,9.0,85,0.00,,---,0.00,VWS V14.00,2013-02-02 13:36:00,
2013-02-02 08:41:00,10.9,7.3,30.09,SSW,192,6.0,9.0,85,0.00,,---,0.00,VWS V14.00,2013-02-02 13:41:00,
2013-02-02 08:46:00,10.9,7.3,30.08,South,169,2.0,6.0,85,0.00,,---,0.00,VWS V14.00,2013-02-02 13:46:00,
2013-02-02 08:51:00,11.0,7.6,30.08,SSW,208,4.0,7.0,86,0.00,,---,0.00,VWS V14.00,2013-02-02 13:51:00,
2013-02-02 08:56:00,11.0,7.6,30.08,SSW,199,7.0,10.0,86,0.00,,---,0.00,VWS V14.00,2013-02-02 13:56:00,
2013-02-02 09:01:00,11.1,7.7,30.08,SSW,195,4.0,7.0,86,0.00,,---,0.00,VWS V14.00,2013-02-02 14:01:00,
2013-02-02 09:06:00,11.2,7.6,30.08,South,178,5.0,9.0,85,0.00,,---,0.00,VWS V14.00,2013-02-02 14:06:00,
2013-02-02 09:11:00,11.2,7.8,30.08,SSE,160,4.0,12.0,86,0.00,,---,0.00,VWS V14.00,2013-02-02 14:11:00,
2013-02-02 09:16:00,11.2,7.6,30.08,SSW,210,3.0,7.0,85,0.00,,---,0.00,VWS V14.00,2013-02-02 14:16:00,
2013-02-02 09:21:00,11.3,7.9,30.07,SW,217,6.0,10.0,86,0.00,,---,0.00,VWS V14.00,2013-02-02 14:21:00,
2013-02-02 09:26:00,11.4,7.8,30.07,South,188,4.0,10.0,85,0.00,,---,0.00,VWS V14.00,2013-02-02 14:26:00,
2013-02-02 09:31:00,11.5,7.9,30.07,SSW,212,3.0,9.0,85,0.00,,---,0.00,VWS V14.00,2013-02-02 14:31:00,
2013-02-02 09:36:00,11.6,8.0,30.07,SSW,202,2.0,10.0,85,0.00,,---,0.00,VWS V14.00,2013-02-02 14:36:00,
2013-02-02 09:41:00,11.6,8.0,30.06,SSW,203,3.0,10.0,85,0.00,,---,0.00,VWS V14.00,2013-02-02 14:41:00,
2013-02-02 09:46:00,11.7,8.1,30.06,South,180,4.0,8.0,85,0.00,,---,0.00,VWS V14.00,2013-02-02 14:46:00,
2013-02-02 09:51:00,11.7,8.3,30.06,SSW,197,5.0,10.0,86,0.00,,---,0.00,VWS V14.00,2013-02-02 14:51:00,
2013-02-02 09:56:00,11.7,8.3,30.06,SSW,208,4.0,10.0,86,0.00,,---,0.00,VWS V14.00,2013-02-02 14:56:00,
2013-02-02 10:01:00,11.8,8.4,30.06,SSW,198,1.0,6.0,86,0.00,,---,0.00,VWS V14.00,2013-02-02 15:01:00,
2013-02-02 10:06:00,11.8,8.4,30.06,SSW,204,4.0,11.0,86,0.00,,---,0.00,VWS V14.00,2013-02-02 15:06:00,
2013-02-02 10:11:00,11.9,8.5,30.05,SSW,198,6.0,11.0,86,0.00,,---,0.00,VWS V14.00,2013-02-02 15:11:00,
2013-02-02 10:16:00,12.1,8.7,30.05,SSW,202,2.0,6.0,86,0.00,,---,0.00,VWS V14.00,2013-02-02 15:16:00,
2013-02-02 10:21:00,12.2,8.8,30.05,SSW,203,4.0,13.0,86,0.00,,---,0.00,VWS V14.00,2013-02-02 15:21:00,
2013-02-02 10:26:00,12.3,8.9,30.05,WSW,242,6.0,13.0,86,0.00,,---,0.00,VWS V14.00,2013-02-02 15:26:00,
2013-02-02 10:31:00,12.5,9.4,30.05,SW,221,2.0,7.0,87,0.00,,---,0.00,VWS V14.00,2013-02-02 15:31:00,
2013-02-02 10:36:00,12.6,9.5,30.04,SW,232,3.0,9.0,87,0.00,,---,0.00,VWS V14.00,2013-02-02 15:36:00,
2013-02-02 10:41:00,12.7,9.6,30.05,SSW,206,2.0,9.0,87,0.00,,---,0.00,VWS V14.00,2013-02-02 15:41:00,
2013-02-02 10:46:00,12.9,9.8,30.04,SSW,213,3.0,7.0,87,0.00,,---,0.00,VWS V14.00,2013-02-02 15:46:00,
2013-02-02 10:51:00,13.0,9.9,30.04,SSW,196,6.0,9.0,87,0.00,,---,0.00,VWS V14.00,2013-02-02 15:51:00,
2013-02-02 10:56:00,13.2,10.1,30.04,SSW,200,7.0,10.0,87,0.00,,---,0.00,VWS V14.00,2013-02-02 15:56:00,
2013-02-02 11:01:00,13.3,9.9,30.04,SSW,205,6.0,8.0,86,0.00,,---,0.00,VWS V14.00,2013-02-02 16:01:00,
2013-02-02 11:06:00,13.5,10.1,30.04,SSW,195,1.0,12.0,86,0.00,,---,0.00,VWS V14.00,2013-02-02 16:06:00,
2013-02-02 11:11:00,13.7,10.3,30.04,SSW,213,4.0,12.0,86,0.00,,---,0.00,VWS V14.00,2013-02-02 16:11:00,
2013-02-02 11:16:00,13.7,10.3,30.03,SW,215,5.0,10.0,86,0.00,,---,0.00,VWS V14.00,2013-02-02 16:16:00,
2013-02-02 11:21:00,13.9,10.2,30.03,South,190,7.0,10.0,85,0.00,,---,0.00,VWS V14.00,2013-02-02 16:21:00,
2013-02-02 11:27:00,13.9,10.2,30.03,SSW,200,6.0,10.0,85,0.00,,---,0.00,VWS V14.00,2013-02-02 16:27:00,
2013-02-02 11:32:00,14.0,10.3,30.02,South,187,3.0,10.0,85,0.00,,---,0.00,VWS V14.00,2013-02-02 16:32:00,
2013-02-02 11:37:00,14.0,10.3,30.02,SSW,207,6.0,10.0,85,0.00,,---,0.00,VWS V14.00,2013-02-02 16:37:00,
2013-02-02 11:42:00,14.0,10.3,30.02,WSW,240,6.0,12.0,85,0.00,,---,0.00,VWS V14.00,2013-02-02 16:42:00,
2013-02-02 11:47:00,14.0,10.6,30.02,SSW,194,5.0,10.0,86,0.00,,---,0.00,VWS V14.00,2013-02-02 16:47:00,
2013-02-02 11:52:00,14.2,10.8,30.02,SW,227,3.0,10.0,86,0.00,,---,0.00,VWS V14.00,2013-02-02 16:52:00,
2013-02-02 11:57:00,14.2,11.1,30.01,South,190,8.0,10.0,87,0.00,,---,0.00,VWS V14.00,2013-02-02 16:57:00,
2013-02-02 12:02:00,14.2,11.1,30.01,SW,236,3.0,9.0,87,0.00,,---,0.00,VWS V14.00,2013-02-02 17:02:00,
2013-02-02 12:07:00,14.3,11.1,30.00,SSW,205,4.0,9.0,87,0.00,,---,0.00,VWS V14.00,2013-02-02 17:07:00,
2013-02-02 12:12:00,14.3,11.1,30.00,SSW,210,5.0,9.0,87,0.00,,---,0.00,VWS V14.00,2013-02-02 17:12:00,
2013-02-02 12:17:00,14.4,11.2,29.99,SSW,200,5.0,8.0,87,0.00,,---,0.00,VWS V14.00,2013-02-02 17:17:00,
2013-02-02 12:22:00,14.4,11.2,29.99,South,180,6.0,11.0,87,0.00,,---,0.00,VWS V14.00,2013-02-02 17:22:00,
2013-02-02 12:27:00,14.4,11.2,29.99,SSW,195,6.0,11.0,87,0.00,,---,0.00,VWS V14.00,2013-02-02 17:27:00,
2013-02-02 12:32:00,14.5,11.3,29.99,SW,215,5.0,10.0,87,0.00,,---,0.00,VWS V14.00,2013-02-02 17:32:00,
2013-02-02 12:37:00,14.5,11.6,29.98,South,189,6.0,12.0,88,0.00,,---,0.00,VWS V14.00,2013-02-02 17:37:00,
2013-02-02 12:42:00,14.7,11.8,29.98,SW,215,9.0,12.0,88,0.00,,---,0.00,VWS V14.00,2013-02-02 17:42:00,
2013-02-02 12:47:00,14.7,11.8,29.98,WSW,242,5.0,11.0,88,0.00,,---,0.00,VWS V14.00,2013-02-02 17:47:00,
2013-02-02 12:52:00,14.7,11.8,29.97,SSW,210,3.0,11.0,88,0.00,,---,0.00,VWS V14.00,2013-02-02 17:52:00,
2013-02-02 12:57:00,14.9,12.0,29.97,South,189,8.0,11.0,88,0.00,,---,0.00,VWS V14.00,2013-02-02 17:57:00,
2013-02-02 13:02:00,15.0,12.1,29.97,SSW,204,4.0,6.0,88,0.00,,---,0.00,VWS V14.00,2013-02-02 18:02:00,
2013-02-02 13:07:00,15.0,12.1,29.96,SW,215,2.0,8.0,88,0.00,,---,0.00,VWS V14.00,2013-02-02 18:07:00,
2013-02-02 13:12:00,15.0,12.1,29.96,South,188,6.0,11.0,88,0.00,,---,0.00,VWS V14.00,2013-02-02 18:12:00,
2013-02-02 13:17:00,15.1,12.2,29.95,SSW,201,4.0,7.0,88,0.00,,---,0.00,VWS V14.00,2013-02-02 18:17:00,
2013-02-02 13:22:00,15.2,12.3,29.95,SSW,196,6.0,7.0,88,0.00,,---,0.00,VWS V14.00,2013-02-02 18:22:00,
2013-02-02 13:27:00,15.4,12.5,29.95,SSW,205,3.0,7.0,88,0.00,,---,0.00,VWS V14.00,2013-02-02 18:27:00,
2013-02-02 13:32:00,15.5,12.6,29.95,SSW,207,3.0,7.0,88,0.00,,---,0.00,VWS V14.00,2013-02-02 18:32:00,
2013-02-02 13:37:00,15.7,12.8,29.94,South,183,0.0,7.0,88,0.00,,---,0.00,VWS V14.00,2013-02-02 18:37:00,
2013-02-02 13:42:00,15.8,12.9,29.94,SSW,198,3.0,8.0,88,0.00,,---,0.00,VWS V14.00,2013-02-02 18:42:00,
2013-02-02 13:47:00,15.8,12.9,29.94,SSW,211,4.0,10.0,88,0.00,,---,0.00,VWS V14.00,2013-02-02 18:47:00,
2013-02-02 13:52:00,15.9,13.0,29.94,SSW,209,5.0,10.0,88,0.00,,---,0.00,VWS V14.00,2013-02-02 18:52:00,
2013-02-02 13:57:00,16.0,13.1,29.93,SSW,196,4.0,10.0,88,0.00,,---,0.00,VWS V14.00,2013-02-02 18:57:00,
2013-02-02 14:02:00,16.2,13.5,29.93,SSW,210,6.0,6.0,89,0.00,,---,0.00,VWS V14.00,2013-02-02 19:02:00,
2013-02-02 14:07:00,16.3,13.6,29.93,SW,217,5.0,7.0,89,0.00,,---,0.00,VWS V14.00,2013-02-02 19:07:00,
2013-02-02 14:12:00,16.4,13.7,29.93,SSW,205,2.0,7.0,89,0.00,,---,0.00,VWS V14.00,2013-02-02 19:12:00,
2013-02-02 14:17:00,16.4,13.7,29.93,SSW,197,3.0,5.0,89,0.00,,---,0.00,VWS V14.00,2013-02-02 19:17:00,
2013-02-02 14:22:00,16.6,13.9,29.93,SW,219,3.0,5.0,89,0.00,,---,0.00,VWS V14.00,2013-02-02 19:22:00,
2013-02-02 14:27:00,16.7,14.0,29.93,SSW,210,3.0,6.0,89,0.00,,---,0.00,VWS V14.00,2013-02-02 19:27:00,
2013-02-02 14:32:00,16.9,14.2,29.93,SW,223,4.0,7.0,89,0.00,,---,0.00,VWS V14.00,2013-02-02 19:32:00,
2013-02-02 14:37:00,17.0,14.3,29.92,South,190,4.0,7.0,89,0.00,,---,0.00,VWS V14.00,2013-02-02 19:37:00,
2013-02-02 14:42:00,17.2,14.5,29.92,SSW,200,2.0,7.0,89,0.00,,---,0.00,VWS V14.00,2013-02-02 19:42:00,
2013-02-02 14:47:00,17.3,14.6,29.92,SW,216,3.0,6.0,89,0.00,,---,0.00,VWS V14.00,2013-02-02 19:47:00,
2013-02-02 14:52:00,17.5,14.8,29.92,SSW,213,1.0,6.0,89,0.00,,---,0.00,VWS V14.00,2013-02-02 19:52:00,
2013-02-02 14:57:00,17.6,14.9,29.92,SSW,206,4.0,6.0,89,0.00,,---,0.00,VWS V14.00,2013-02-02 19:57:00,
2013-02-02 15:02:00,17.7,15.0,29.92,South,179,4.0,5.0,89,0.00,,---,0.00,VWS V14.00,2013-02-02 20:02:00,
2013-02-02 15:07:00,17.7,15.0,29.92,SW,227,3.0,5.0,89,0.00,,---,0.00,VWS V14.00,2013-02-02 20:07:00,
2013-02-02 15:12:00,17.8,15.1,29.92,SSW,195,3.0,6.0,89,0.00,,---,0.00,VWS V14.00,2013-02-02 20:12:00,
2013-02-02 15:17:00,17.9,15.2,29.92,SSW,199,3.0,4.0,89,0.00,,---,0.00,VWS V14.00,2013-02-02 20:17:00,
2013-02-02 15:22:00,18.2,15.5,29.92,SW,234,3.0,5.0,89,0.00,,---,0.00,VWS V14.00,2013-02-02 20:22:00,
2013-02-02 15:27:00,18.2,15.5,29.92,WSW,252,5.0,5.0,89,0.00,,---,0.00,VWS V14.00,2013-02-02 20:27:00,
2013-02-02 15:32:00,18.4,15.7,29.92,SSW,200,2.0,2.0,89,0.00,,---,0.00,VWS V14.00,2013-02-02 20:32:00,
2013-02-02 15:37:00,18.4,15.7,29.92,SSW,200,1.0,6.0,89,0.00,,---,0.00,VWS V14.00,2013-02-02 20:37:00,
2013-02-02 15:42:00,18.4,15.7,29.92,SW,214,3.0,6.0,89,0.00,,---,0.00,VWS V14.00,2013-02-02 20:42:00,
2013-02-02 15:47:00,18.5,15.8,29.92,WSW,238,2.0,4.0,89,0.00,,---,0.00,VWS V14.00,2013-02-02 20:47:00,
2013-02-02 15:52:00,18.5,15.8,29.92,South,190,2.0,4.0,89,0.00,,---,0.00,VWS V14.00,2013-02-02 20:52:00,
2013-02-02 15:57:00,18.6,15.9,29.92,SSW,210,4.0,4.0,89,0.00,,---,0.00,VWS V14.00,2013-02-02 20:57:00,
2013-02-02 16:02:00,18.7,16.0,29.92,SW,227,1.0,3.0,89,0.00,,---,0.00,VWS V14.00,2013-02-02 21:02:00,
2013-02-02 16:07:00,18.8,16.1,29.92,SSW,200,2.0,4.0,89,0.00,,---,0.00,VWS V14.00,2013-02-02 21:07:00,
2013-02-02 16:12:00,18.8,16.1,29.92,SSW,201,1.0,4.0,89,0.00,,---,0.00,VWS V14.00,2013-02-02 21:12:00,
2013-02-02 16:17:00,18.9,16.2,29.92,SW,221,0.0,2.0,89,0.00,,---,0.00,VWS V14.00,2013-02-02 21:17:00,
2013-02-02 16:22:00,18.9,16.2,29.92,SW,231,1.0,4.0,89,0.00,,---,0.00,VWS V14.00,2013-02-02 21:22:00,
2013-02-02 16:27:00,18.9,16.2,29.91,SSW,201,2.0,6.0,89,0.00,,---,0.00,VWS V14.00,2013-02-02 21:27:00,
2013-02-02 16:32:00,18.9,16.2,29.91,SSW,210,1.0,2.0,89,0.00,,---,0.00,VWS V14.00,2013-02-02 21:32:00,
2013-02-02 16:37:00,18.9,16.5,29.92,SW,217,1.0,3.0,90,0.00,,---,0.00,VWS V14.00,2013-02-02 21:37:00,
2013-02-02 16:42:00,19.0,16.6,29.91,SSW,198,0.0,5.0,90,0.00,,---,0.00,VWS V14.00,2013-02-02 21:42:00,
2013-02-02 16:47:00,19.0,16.6,29.91,SW,226,0.0,2.0,90,0.00,,---,0.00,VWS V14.00,2013-02-02 21:47:00,
2013-02-02 16:52:00,19.0,16.6,29.91,SSW,211,0.0,2.0,90,0.00,,---,0.00,VWS V14.00,2013-02-02 21:52:00,
2013-02-02 16:57:00,19.0,16.6,29.91,SSW,200,0.0,3.0,90,0.00,,---,0.00,VWS V14.00,2013-02-02 21:57:00,
2013-02-02 17:02:00,19.0,16.6,29.91,SSW,204,2.0,4.0,90,0.00,,---,0.00,VWS V14.00,2013-02-02 22:02:00,
2013-02-02 17:07:00,19.0,16.6,29.91,SSW,203,1.0,4.0,90,0.00,,---,0.00,VWS V14.00,2013-02-02 22:07:00,
2013-02-02 17:12:00,19.0,16.6,29.91,SSW,207,2.0,4.0,90,0.00,,---,0.00,VWS V14.00,2013-02-02 22:12:00,
2013-02-02 17:17:00,19.0,16.6,29.91,SSW,208,0.0,2.0,90,0.00,,---,0.00,VWS V14.00,2013-02-02 22:17:00,
2013-02-02 17:22:00,18.9,16.5,29.91,WSW,240,0.0,3.0,90,0.00,,---,0.00,VWS V14.00,2013-02-02 22:22:00,
2013-02-02 17:27:00,18.9,16.5,29.91,WSW,240,0.0,3.0,90,0.00,,---,0.00,VWS V14.00,2013-02-02 22:27:00,
2013-02-02 17:32:00,18.9,16.5,29.91,WSW,240,0.0,0.0,90,0.00,,---,0.00,VWS V14.00,2013-02-02 22:32:00,
2013-02-02 17:37:00,18.9,16.5,29.91,WSW,240,1.0,2.0,90,0.00,,---,0.00,VWS V14.00,2013-02-02 22:37:00,
2013-02-02 17:42:00,18.9,16.5,29.91,SSW,209,1.0,3.0,90,0.00,,---,0.00,VWS V14.00,2013-02-02 22:42:00,
2013-02-02 17:47:00,18.9,16.5,29.91,SSW,194,0.0,0.0,90,0.00,,---,0.00,VWS V14.00,2013-02-02 22:47:00,
2013-02-02 17:52:00,18.9,16.5,29.91,SSW,194,0.0,1.0,90,0.00,,---,0.00,VWS V14.00,2013-02-02 22:52:00,
2013-02-02 17:57:00,18.8,16.4,29.91,SSW,194,0.0,1.0,90,0.00,,---,0.00,VWS V14.00,2013-02-02 22:57:00,
2013-02-02 18:02:00,18.8,16.4,29.91,SSW,194,1.0,1.0,90,0.00,,---,0.00,VWS V14.00,2013-02-02 23:02:00,
2013-02-02 18:07:00,18.8,16.4,29.91,SSW,194,0.0,2.0,90,0.00,,---,0.00,VWS V14.00,2013-02-02 23:07:00,
2013-02-02 18:12:00,18.7,16.3,29.91,SSW,194,0.0,2.0,90,0.00,,---,0.00,VWS V14.00,2013-02-02 23:12:00,
2013-02-02 18:17:00,18.7,16.3,29.91,SSW,194,0.0,0.0,90,0.00,,---,0.00,VWS V14.00,2013-02-02 23:17:00,
2013-02-02 18:22:00,18.7,16.3,29.91,SSW,194,0.0,0.0,90,0.00,,---,0.00,VWS V14.00,2013-02-02 23:22:00,
2013-02-02 18:27:00,18.7,16.5,29.91,SSW,194,0.0,1.0,91,0.00,,---,0.00,VWS V14.00,2013-02-02 23:27:00,
2013-02-02 18:32:00,18.7,16.3,29.91,SSW,194,0.0,0.0,90,0.00,,---,0.00,VWS V14.00,2013-02-02 23:32:00,
2013-02-02 18:37:00,18.7,16.3,29.91,SSW,194,0.0,1.0,90,0.00,,---,0.00,VWS V14.00,2013-02-02 23:37:00,
2013-02-02 18:42:00,18.7,16.3,29.91,SSW,194,0.0,1.0,90,0.00,,---,0.00,VWS V14.00,2013-02-02 23:42:00,
2013-02-02 18:47:00,18.7,16.3,29.91,SSW,194,0.0,2.0,90,0.00,,---,0.00,VWS V14.00,2013-02-02 23:47:00,
2013-02-02 18:52:00,18.7,16.5,29.91,SSW,193,0.0,2.0,91,0.00,,---,0.00,VWS V14.00,2013-02-02 23:52:00,
2013-02-02 18:57:00,18.7,16.5,29.91,SSW,192,0.0,2.0,91,0.00,,---,0.00,VWS V14.00,2013-02-02 23:57:00,
2013-02-02 19:02:00,18.7,16.5,29.91,SSW,192,0.0,0.0,91,0.00,,---,0.00,VWS V14.00,2013-02-03 00:02:00,
2013-02-02 19:07:00,18.6,16.4,29.91,South,190,0.0,1.0,91,0.00,,---,0.00,VWS V14.00,2013-02-03 00:07:00,
2013-02-02 19:12:00,18.6,16.4,29.91,South,190,0.0,1.0,91,0.00,,---,0.00,VWS V14.00,2013-02-03 00:12:00,
2013-02-02 19:17:00,18.6,16.4,29.91,South,190,0.0,1.0,91,0.00,,---,0.00,VWS V14.00,2013-02-03 00:17:00,
2013-02-02 19:22:00,18.6,16.4,29.91,South,189,1.0,2.0,91,0.00,,---,0.00,VWS V14.00,2013-02-03 00:22:00,
2013-02-02 19:27:00,18.6,16.4,29.92,South,188,0.0,2.0,91,0.00,,---,0.00,VWS V14.00,2013-02-03 00:27:00,
2013-02-02 19:32:00,18.6,16.4,29.91,South,187,0.0,2.0,91,0.00,,---,0.00,VWS V14.00,2013-02-03 00:32:00,
2013-02-02 19:37:00,18.6,16.4,29.92,South,187,0.0,2.0,91,0.00,,---,0.00,VWS V14.00,2013-02-03 00:37:00,
2013-02-02 19:42:00,18.6,16.4,29.92,South,187,0.0,2.0,91,0.00,,---,0.00,VWS V14.00,2013-02-03 00:42:00,
2013-02-02 19:47:00,18.6,16.4,29.92,South,187,1.0,1.0,91,0.00,,---,0.00,VWS V14.00,2013-02-03 00:47:00,
2013-02-02 19:52:00,18.6,16.4,29.92,South,183,1.0,3.0,91,0.00,,---,0.00,VWS V14.00,2013-02-03 00:52:00,
2013-02-02 19:57:00,18.6,16.4,29.92,South,182,1.0,3.0,91,0.00,,---,0.00,VWS V14.00,2013-02-03 00:57:00,
2013-02-02 20:02:00,18.6,16.4,29.91,South,174,2.0,4.0,91,0.00,,---,0.00,VWS V14.00,2013-02-03 01:02:00,
2013-02-02 20:07:00,18.7,16.5,29.91,South,178,2.0,5.0,91,0.00,,---,0.00,VWS V14.00,2013-02-03 01:07:00,
2013-02-02 20:12:00,18.6,16.4,29.91,South,186,0.0,5.0,91,0.00,,---,0.00,VWS V14.00,2013-02-03 01:12:00,
2013-02-02 20:17:00,18.6,16.4,29.91,South,184,2.0,2.0,91,0.00,,---,0.00,VWS V14.00,2013-02-03 01:17:00,
2013-02-02 20:22:00,18.7,16.5,29.91,South,184,2.0,3.0,91,0.00,,---,0.00,VWS V14.00,2013-02-03 01:22:00,
2013-02-02 20:27:00,18.8,16.6,29.91,South,181,3.0,4.0,91,0.00,,---,0.00,VWS V14.00,2013-02-03 01:27:00,
2013-02-02 20:32:00,18.8,16.6,29.91,South,184,4.0,4.0,91,0.00,,---,0.00,VWS V14.00,2013-02-03 01:32:00,
2013-02-02 20:37:00,19.0,16.8,29.91,SSW,192,1.0,5.0,91,0.00,,---,0.00,VWS V14.00,2013-02-03 01:37:00,
2013-02-02 20:42:00,19.0,16.8,29.91,South,187,2.0,5.0,91,0.00,,---,0.00,VWS V14.00,2013-02-03 01:42:00,
2013-02-02 20:47:00,19.1,16.9,29.91,South,181,3.0,3.0,91,0.00,,---,0.00,VWS V14.00,2013-02-03 01:47:00,
2013-02-02 20:52:00,19.2,17.0,29.91,South,191,3.0,4.0,91,0.00,,---,0.00,VWS V14.00,2013-02-03 01:52:00,
2013-02-02 20:57:00,19.3,17.1,29.90,South,188,2.0,4.0,91,0.00,,---,0.00,VWS V14.00,2013-02-03 01:57:00,
2013-02-02 21:02:00,19.3,17.4,29.91,SSW,199,1.0,3.0,92,0.00,,---,0.00,VWS V14.00,2013-02-03 02:02:00,
2013-02-02 21:07:00,19.4,17.5,29.90,SSW,205,3.0,4.0,92,0.00,,---,0.00,VWS V14.00,2013-02-03 02:07:00,
2013-02-02 21:12:00,19.5,17.6,29.91,South,184,2.0,4.0,92,0.00,,---,0.00,VWS V14.00,2013-02-03 02:12:00,
2013-02-02 21:17:00,19.5,17.6,29.90,SSW,199,2.0,3.0,92,0.00,,---,0.00,VWS V14.00,2013-02-03 02:17:00,
2013-02-02 21:22:00,19.5,17.3,29.90,SSW,209,2.0,4.0,91,0.00,,---,0.00,VWS V14.00,2013-02-03 02:22:00,
2013-02-02 21:27:00,19.6,17.7,29.91,SSW,206,1.0,4.0,92,0.00,,---,0.00,VWS V14.00,2013-02-03 02:27:00,
2013-02-02 21:32:00,19.6,17.7,29.90,SSW,198,2.0,4.0,92,0.00,,---,0.00,VWS V14.00,2013-02-03 02:32:00,
2013-02-02 21:37:00,19.7,17.8,29.91,SSW,208,0.0,4.0,92,0.00,,---,0.00,VWS V14.00,2013-02-03 02:37:00,
2013-02-02 21:42:00,19.7,17.8,29.90,SSW,194,1.0,4.0,92,0.00,,---,0.00,VWS V14.00,2013-02-03 02:42:00,
2013-02-02 21:47:00,19.7,17.8,29.90,SSW,194,1.0,3.0,92,0.00,,---,0.00,VWS V14.00,2013-02-03 02:47:00,
2013-02-02 21:52:00,19.7,17.8,29.90,SSW,198,3.0,4.0,92,0.00,,---,0.00,VWS V14.00,2013-02-03 02:52:00,
2013-02-02 21:57:00,19.8,17.9,29.90,SSW,213,1.0,4.0,92,0.00,,---,0.00,VWS V14.00,2013-02-03 02:57:00,
2013-02-02 22:02:00,19.8,17.9,29.90,WSW,237,1.0,2.0,92,0.00,,---,0.00,VWS V14.00,2013-02-03 03:02:00,
2013-02-02 22:07:00,19.8,17.9,29.90,SSW,206,1.0,3.0,92,0.00,,---,0.00,VWS V14.00,2013-02-03 03:07:00,
2013-02-02 22:12:00,19.8,17.9,29.90,SSW,211,0.0,3.0,92,0.00,,---,0.00,VWS V14.00,2013-02-03 03:12:00,
2013-02-02 22:17:00,19.9,18.0,29.90,SSW,201,2.0,3.0,92,0.00,,---,0.00,VWS V14.00,2013-02-03 03:17:00,
2013-02-02 22:22:00,19.8,17.9,29.90,SSW,207,1.0,3.0,92,0.00,,---,0.00,VWS V14.00,2013-02-03 03:22:00,
2013-02-02 22:27:00,19.9,18.0,29.90,SSW,211,0.0,3.0,92,0.00,,---,0.00,VWS V14.00,2013-02-03 03:27:00,
2013-02-02 22:32:00,19.9,18.0,29.90,SSW,210,0.0,1.0,92,0.00,,---,0.00,VWS V14.00,2013-02-03 03:32:00,
2013-02-02 22:37:00,19.9,18.0,29.90,WSW,238,0.0,4.0,92,0.00,,---,0.00,VWS V14.00,2013-02-03 03:37:00,
2013-02-02 22:42:00,19.9,18.0,29.89,WSW,238,0.0,4.0,92,0.00,,---,0.00,VWS V14.00,2013-02-03 03:42:00,
2013-02-02 22:47:00,19.9,18.0,29.89,WSW,238,0.0,1.0,92,0.00,,---,0.00,VWS V14.00,2013-02-03 03:47:00,
2013-02-02 22:52:00,19.9,18.0,29.89,WSW,238,0.0,1.0,92,0.00,,---,0.00,VWS V14.00,2013-02-03 03:52:00,
2013-02-02 22:57:00,19.9,18.0,29.89,WSW,238,0.0,1.0,92,0.00,,---,0.00,VWS V14.00,2013-02-03 03:57:00,
2013-02-02 23:02:00,19.9,18.0,29.89,SW,227,1.0,2.0,92,0.00,,---,0.00,VWS V14.00,2013-02-03 04:02:00,
2013-02-02 23:07:00,20.0,18.0,29.89,SSW,202,0.0,3.0,92,0.00,,---,0.00,VWS V14.00,2013-02-03 04:07:00,
2013-02-02 23:12:00,20.0,18.0,29.89,SSW,202,0.0,3.0,92,0.00,,---,0.00,VWS V14.00,2013-02-03 04:12:00,
2013-02-02 23:17:00,19.9,18.0,29.89,SSW,202,0.0,1.0,92,0.00,,---,0.00,VWS V14.00,2013-02-03 04:17:00,
2013-02-02 23:22:00,19.9,18.0,29.89,SSW,204,0.0,1.0,92,0.00,,---,0.00,VWS V14.00,2013-02-03 04:22:00,
2013-02-02 23:27:00,19.9,18.0,29.89,SSW,207,1.0,1.0,92,0.00,,---,0.00,VWS V14.00,2013-02-03 04:27:00,
2013-02-02 23:32:00,19.9,18.0,29.89,SW,225,0.0,2.0,92,0.00,,---,0.00,VWS V14.00,2013-02-03 04:32:00,
2013-02-02 23:37:00,19.9,18.0,29.89,SW,225,0.0,2.0,92,0.00,,---,0.00,VWS V14.00,2013-02-03 04:37:00,
2013-02-02 23:42:00,19.9,18.0,29.89,SW,225,0.0,2.0,92,0.00,,---,0.00,VWS V14.00,2013-02-03 04:42:00,
2013-02-02 23:47:00,19.9,18.0,29.89,SW,229,0.0,1.0,92,0.00,,---,0.00,VWS V14.00,2013-02-03 04:47:00,
2013-02-02 23:52:00,19.9,18.0,29.89,SW,229,0.0,2.0,92,0.00,,---,0.00,VWS V14.00,2013-02-03 04:52:00,
2013-02-02 23:57:00,19.9,18.0,29.89,SW,229,0.0,2.0,92,0.00,,---,0.00,VWS V14.00,2013-02-03 04:57:00,